Simultaneous Nadir Overpasses (SNOs) Predictions

Prediction of SNOs between AURA and NPP Satellite Orbit:

Table of predicted SNOs for the next 14.0 days since TLE Epoch: 4/16/2016
Index Date (AURA) Time (AURA) Lat,Lon (AURA) SZA (AURA ) Date (NPP) Time (NPP) Lat,Lon (NPP) SZA (NPP ) Distance(km) Time Diff (sec)
1 04/17/2016 02:52:29 -79.24,-148.04 97.67 04/17/2016 02:51:54 -79.24,-148.05 97.64 0.36 35
2 04/17/2016 03:41:46 79.58, 21.89 81.83 04/17/2016 03:42:28 79.59, 22.02 81.78 2.74 42
3 04/19/2016 19:08:54 -79.31, -31.68 98.71 04/19/2016 19:08:48 -79.31, -31.79 98.69 2.43 6
4 04/19/2016 19:58:11 79.65, 138.26 80.79 04/19/2016 19:59:22 79.65, 138.31 80.73 0.93 71
5 04/22/2016 10:35:56 79.21, -84.10 80.54 04/22/2016 10:35:01 79.21, -84.07 80.57 0.85 55
6 04/22/2016 11:25:15 -79.53, 85.65 99.94 04/22/2016 11:25:37 -79.53, 85.80 99.98 3.12 22
7 04/25/2016 02:52:19 79.33, 32.61 79.47 04/25/2016 02:51:53 79.34, 32.68 79.48 1.55 26
8 04/25/2016 03:41:41 -79.54,-158.38 100.84 04/25/2016 03:42:33 -79.53,-158.50 100.86 2.74 52
9 04/27/2016 18:19:28 -78.95, -21.51 100.85 04/27/2016 18:18:14 -78.97, -21.56 100.79 1.96 74




NCC Satellite Simultaneous Nadir Overpasses (SNOs) Prediction Service
